When you browse on this site, cookies collect data to enhance your experience and personalize the content and advertising you see.
Visit our Privacy Policy to learn more. By continuing to use the site, you agree to this use of cookies and data.
  • In Latvia
  • List of Countries
  • For 7 days
  • Water Temperature
  • Weather Map
  • Weather Widgets
  • user-avatar
    Login

    Hourly Weather Albany

    Today, 6 December, Friday

    Time Temperature Precipitation Wind Pressure Humidity
    00:00 +13°C° 0 mm 5 mps 758 mmHg 95%
    01:00 +13°C° 0 mm 4 mps 757 mmHg 95%
    02:00 +13°C° 0 mm 4 mps 757 mmHg 95%
    03:00 +13°C° 0 mm 4 mps 757 mmHg 95%
    04:00 +13°C° 0 mm 5 mps 756 mmHg 95%
    05:00 +13°C° 0 mm 5 mps 756 mmHg 95%
    06:00 +16°C° 0 mm 5 mps 756 mmHg 82%
    07:00 +19°C° 0 mm 5 mps 756 mmHg 70%
    08:00 +22°C° 0 mm 5 mps 756 mmHg 55%
    09:00 +26°C° 0 mm 5 mps 755 mmHg 46%
    10:00 +30°C° 0 mm 5 mps 755 mmHg 37%
    11:00 +34°C° 0 mm 5 mps 754 mmHg 27%
    12:00 +35°C° 0 mm 6 mps 753 mmHg 28%
    13:00 +35°C° 0 mm 7 mps 752 mmHg 28%
    14:00 +36°C° 0 mm 7 mps 751 mmHg 28%
    15:00 +34°C° 0 mm 8 mps 750 mmHg 33%
    16:00 +32°C° 0 mm 8 mps 750 mmHg 38%
    17:00 +29°C° 0 mm 8 mps 749 mmHg 43%
    18:00 +27°C° 0.3 mm 8 mps 750 mmHg 53%
    19:00 +23°C° 0.3 mm 7 mps 750 mmHg 63%
    20:00 +21°C° 0.3 mm 6 mps 751 mmHg 74%
    21:00 +21°C° 0 mm 5 mps 751 mmHg 75%
    22:00 +21°C° 0 mm 4 mps 750 mmHg 76%
    23:00 +21°C° 0 mm 2 mps 750 mmHg 78%

    Tomorrow, 7 December, Saturday

    Time Temperature Precipitation Wind Pressure Humidity
    00:00 +20°C° 0 mm 2 mps 750 mmHg 78%
    01:00 +20°C° 0 mm 2 mps 750 mmHg 78%
    02:00 +19°C° 0 mm 2 mps 749 mmHg 79%
    03:00 +19°C° 0 mm 2 mps 749 mmHg 78%
    04:00 +18°C° 0 mm 2 mps 749 mmHg 77%
    05:00 +18°C° 0 mm 3 mps 749 mmHg 76%
    06:00 +20°C° 0 mm 2 mps 749 mmHg 67%
    07:00 +23°C° 0 mm 2 mps 749 mmHg 58%
    08:00 +25°C° 0 mm 2 mps 749 mmHg 49%
    09:00 +27°C° 0 mm 3 mps 749 mmHg 42%
    10:00 +29°C° 0 mm 4 mps 749 mmHg 35%
    11:00 +33°C° 0 mm 6 mps 749 mmHg 28%
    12:00 +29°C° 0.2 mm 6 mps 749 mmHg 41%
    13:00 +26°C° 0.2 mm 6 mps 749 mmHg 53%
    14:00 +22°C° 0.2 mm 7 mps 749 mmHg 66%
    15:00 +23°C° 0.2 mm 8 mps 749 mmHg 58%
    16:00 +24°C° 0.2 mm 10 mps 750 mmHg 50%
    17:00 +24°C° 0.2 mm 11 mps 751 mmHg 42%
    18:00 +22°C° 0 mm 10 mps 751 mmHg 50%
    19:00 +20°C° 0 mm 8 mps 752 mmHg 58%
    20:00 +17°C° 0 mm 7 mps 753 mmHg 66%
    21:00 +16°C° 0 mm 6 mps 753 mmHg 70%
    22:00 +16°C° 0 mm 6 mps 754 mmHg 75%
    23:00 +15°C° 0 mm 6 mps 754 mmHg 79%

    Day after tomorrow, 8 December, Sunday

    Time Temperature Precipitation Wind Pressure Humidity
    00:00 +15°C° 0 mm 6 mps 754 mmHg 81%
    01:00 +14°C° 0 mm 5 mps 754 mmHg 83%
    02:00 +14°C° 0 mm 5 mps 754 mmHg 85%
    03:00 +14°C° 0 mm 5 mps 755 mmHg 88%
    04:00 +14°C° 0 mm 5 mps 756 mmHg 90%
    05:00 +14°C° 0 mm 5 mps 756 mmHg 92%
    06:00 +15°C° 0.1 mm 5 mps 757 mmHg 84%
    07:00 +16°C° 0.1 mm 6 mps 757 mmHg 75%
    08:00 +18°C° 0.1 mm 7 mps 758 mmHg 67%
    09:00 +18°C° 0 mm 7 mps 758 mmHg 64%
    10:00 +20°C° 0 mm 6 mps 759 mmHg 60%
    11:00 +20°C° 0 mm 6 mps 759 mmHg 57%
    12:00 +20°C° 0 mm 6 mps 759 mmHg 53%
    13:00 +21°C° 0 mm 6 mps 759 mmHg 50%
    14:00 +21°C° 0 mm 5 mps 759 mmHg 46%
    15:00 +20°C° 0 mm 5 mps 759 mmHg 48%
    16:00 +20°C° 0 mm 5 mps 759 mmHg 50%
    17:00 +19°C° 0 mm 4 mps 760 mmHg 52%
    18:00 +17°C° 0 mm 4 mps 760 mmHg 59%
    19:00 +16°C° 0 mm 3 mps 761 mmHg 65%
    20:00 +14°C° 0 mm 2 mps 761 mmHg 72%
    21:00 +14°C° 0 mm 2 mps 761 mmHg 75%
    22:00 +13°C° 0 mm 2 mps 762 mmHg 78%
    23:00 +13°C° 0 mm 1 mps 762 mmHg 80%

    9 December, Monday

    Time Temperature Precipitation Wind Pressure Humidity
    00:00 +12°C° 0 mm 1 mps 762 mmHg 82%
    01:00 +12°C° 0 mm 1 mps 762 mmHg 83%
    02:00 +12°C° 0 mm 1 mps 761 mmHg 84%
    03:00 +11°C° 0 mm 1 mps 762 mmHg 86%
    04:00 +11°C° 0 mm 1 mps 762 mmHg 87%
    05:00 +11°C° 0 mm 1 mps 762 mmHg 89%
    06:00 +14°C° 0 mm 1 mps 762 mmHg 77%
    07:00 +16°C° 0 mm 0 mps 763 mmHg 65%
    08:00 +19°C° 0 mm 0 mps 763 mmHg 54%
    09:00 +22°C° 0 mm 1 mps 763 mmHg 50%
    10:00 +23°C° 0 mm 2 mps 763 mmHg 47%
    11:00 +24°C° 0 mm 2 mps 763 mmHg 44%
    12:00 +24°C° 0 mm 3 mps 762 mmHg 45%
    13:00 +24°C° 0 mm 3 mps 762 mmHg 47%
    14:00 +22°C° 0 mm 4 mps 761 mmHg 48%
    15:00 +21°C° 0 mm 4 mps 761 mmHg 51%
    16:00 +20°C° 0 mm 4 mps 761 mmHg 55%
    17:00 +20°C° 0 mm 4 mps 761 mmHg 58%
    18:00 +18°C° 0 mm 3 mps 762 mmHg 64%
    19:00 +17°C° 0 mm 3 mps 762 mmHg 69%
    20:00 +16°C° 0 mm 2 mps 763 mmHg 75%
    21:00 +15°C° 0 mm 2 mps 763 mmHg 77%
    22:00 +14°C° 0 mm 2 mps 763 mmHg 80%
    23:00 +14°C° 0 mm 2 mps 763 mmHg 83%

    10 December, Tuesday

    Time Temperature Precipitation Wind Pressure Humidity
    00:00 +13°C° 0 mm 1 mps 763 mmHg 85%
    01:00 +13°C° 0 mm 1 mps 763 mmHg 86%
    02:00 +13°C° 0 mm 1 mps 762 mmHg 88%
    03:00 +13°C° 0 mm 1 mps 762 mmHg 88%
    04:00 +12°C° 0 mm 1 mps 762 mmHg 89%
    05:00 +12°C° 0 mm 1 mps 762 mmHg 90%
    06:00 +15°C° 0 mm 1 mps 763 mmHg 79%
    07:00 +18°C° 0 mm 1 mps 763 mmHg 68%
    08:00 +21°C° 0 mm 1 mps 763 mmHg 56%
    09:00 +21°C° 0 mm 2 mps 763 mmHg 53%
    10:00 +23°C° 0 mm 2 mps 763 mmHg 49%
    11:00 +24°C° 0 mm 3 mps 763 mmHg 46%
    12:00 +23°C° 0 mm 4 mps 762 mmHg 47%
    13:00 +23°C° 0 mm 4 mps 762 mmHg 47%
    14:00 +23°C° 0 mm 5 mps 762 mmHg 48%
    15:00 +22°C° 0 mm 5 mps 762 mmHg 51%
    16:00 +21°C° 0 mm 5 mps 762 mmHg 55%
    17:00 +20°C° 0 mm 5 mps 762 mmHg 58%
    18:00 +19°C° 0 mm 5 mps 762 mmHg 66%
    19:00 +17°C° 0 mm 5 mps 762 mmHg 73%
    20:00 +15°C° 0 mm 4 mps 763 mmHg 81%
    21:00 +15°C° 0 mm 4 mps 763 mmHg 83%
    22:00 +15°C° 0 mm 4 mps 763 mmHg 86%
    23:00 +14°C° 0 mm 4 mps 763 mmHg 89%

    11 December, Wednesday

    Time Temperature Precipitation Wind Pressure Humidity
    00:00 +14°C° 0 mm 4 mps 763 mmHg 89%
    01:00 +14°C° 0 mm 4 mps 763 mmHg 90%
    02:00 +14°C° 0 mm 4 mps 763 mmHg 91%
    03:00 +13°C° 0 mm 3 mps 763 mmHg 92%
    04:00 +13°C° 0 mm 3 mps 763 mmHg 92%
    05:00 +13°C° 0 mm 3 mps 763 mmHg 93%
    06:00 +16°C° 0 mm 3 mps 763 mmHg 83%
    07:00 +18°C° 0 mm 4 mps 764 mmHg 73%
    08:00 +20°C° 0 mm 4 mps 764 mmHg 63%
    09:00 +21°C° 0 mm 4 mps 764 mmHg 58%
    10:00 +23°C° 0 mm 5 mps 764 mmHg 54%
    11:00 +24°C° 0 mm 6 mps 764 mmHg 49%
    12:00 +24°C° 0 mm 6 mps 763 mmHg 49%
    13:00 +24°C° 0 mm 6 mps 763 mmHg 49%
    14:00 +24°C° 0 mm 7 mps 763 mmHg 50%
    15:00 +23°C° 0 mm 7 mps 763 mmHg 54%
    16:00 +22°C° 0 mm 7 mps 763 mmHg 58%
    17:00 +21°C° 0 mm 7 mps 763 mmHg 62%
    18:00 +20°C° 0 mm 6 mps 763 mmHg 70%
    19:00 +17°C° 0 mm 6 mps 763 mmHg 79%
    20:00 +16°C° 0 mm 6 mps 764 mmHg 87%
    21:00 +15°C° 0 mm 6 mps 764 mmHg 88%
    22:00 +15°C° 0 mm 6 mps 764 mmHg 89%
    23:00 +15°C° 0 mm 6 mps 764 mmHg 90%
    Show more